Weather History for Livingston, MT

Change the Weather History Date:

Tuesday, December 10, 2013

  Actual Average Record
Temperature  
Mean Temperature 20 °F 26 °F  
Max Temperature 24 °F 35 °F 61 °F (1990)
Min Temperature 15 °F 17 °F -19 °F (1961)
Degree Days  
Heating Degree Days 45 39  
Month to date heating degree days 583 381  
Since 1 July heating degree days 2290 2340  
Moisture  
Dew Point 11 °F    
Average Humidity 70    
Maximum Humidity 88    
Minimum Humidity 52    
Precipitation  
Precipitation 0.02 in 0.02 in 0.17 in (1989)
Month to date precipitation 0.30 0.20  
Year to date precipitation 11.60 14.49  
Sea Level Pressure  
Sea Level Pressure 30.10 in    
Wind  
Wind Speed 32 mph (SW)    
Max Wind Speed 63 mph    
Max Gust Speed 78 mph    
Visibility 3 miles    
Events Fog , Snow    
T = Trace of Precipitation, MM = Missing Value Source: NWS Daily Summary

Daily Weather History Graph

Daily Weather History Graph

Search for Another Location

Airport:

Trip Planner

Search our weather history database for the weather conditions in past years. The results will help you decide how hot, cold, wet, or windy it might be!

Date:

Astronomy

Dec. 10, 2013 Rise Set
Actual Time 7:51 AM MST 4:37 PM MST
Civil Twilight 7:17 AM MST 5:11 PM MST
Nautical Twilight 6:40 AM MST 5:49 PM MST
Astronomical Twilight 6:03 AM MST 6:25 PM MST
Moon 12:56 PM MST (12/10) 12:56 AM MST (12/10)
Length of Visible Light 9h 54m
Length of Day
8h 45m
Waxing Gibbous, 62% of the Moon is Illuminated
Dec 10
Waxing Gibbous
Dec 17
Full
Dec 25
Last Quarter
Jan 1
New
Jan 7
First Quarter

Hourly Weather History & Observations

Time (MST) Temp. Windchill Dew Point Humidity Pressure Visibility Wind Dir Wind Speed Gust Speed Precip Events Conditions
12:04 AM 16.0 °F -9.3 °F 5.0 °F 62% 29.94 in 0.8 mi SSW 55.2 mph 76.0 mph 0.00 in Snow Light Snow
12:22 AM 16.0 °F -7.9 °F 5.0 °F 62% 29.93 in 1.0 mi SSW 47.2 mph 78.3 mph 0.01 in Snow Light Snow
12:53 AM 16.0 °F -8.9 °F 7.0 °F 68% 30.12 in 0.8 mi SSW 52.9 mph 69.0 mph 0.01 in Snow Light Snow
1:11 AM 16.0 °F -10.5 °F 9.0 °F 74% 29.89 in 0.2 mi SSW 63.3 mph 78.3 mph 0.00 in Snow Heavy Snow
1:25 AM 15.1 °F -9.4 °F 9.0 °F 77% 29.90 in 0.2 mi SW 48.3 mph 73.6 mph 0.00 in Snow Heavy Snow
1:53 AM 15.1 °F -9.8 °F 9.0 °F 77% 30.09 in 0.2 mi SSW 50.6 mph 72.5 mph 0.01 in Snow Heavy Snow
2:07 AM 16.0 °F -8.5 °F 10.0 °F 77% 29.89 in 0.2 mi SSW 50.6 mph 77.1 mph 0.00 in Snow Heavy Snow
2:18 AM 16.0 °F -8.5 °F 10.0 °F 77% 29.90 in 0.2 mi SSW 50.6 mph 70.2 mph 0.00 in Snow Heavy Snow
2:42 AM 16.0 °F -6.8 °F 9.0 °F 74% 29.89 in 0.2 mi SW 41.4 mph 74.8 mph 0.00 in Snow Heavy Snow
2:53 AM 16.0 °F -8.7 °F 9.0 °F 74% 30.09 in 0.2 mi SSW 51.8 mph 69.0 mph 0.00 in Snow Heavy Snow
3:34 AM 16.0 °F -9.1 °F 10.9 °F 81% 29.89 in 0.2 mi SSW 54.1 mph 66.7 mph 0.00 in Snow Heavy Snow
3:39 AM 16.0 °F -7.0 °F 10.9 °F 81% 29.88 in 0.2 mi SSW 42.6 mph 66.7 mph 0.00 in Snow Heavy Snow
3:53 AM 15.1 °F -7.3 °F 12.0 °F 88% 30.09 in 0.2 mi SW 38.0 mph 63.3 mph 0.00 in Fog , Snow Heavy Snow
4:53 AM 16.0 °F -5.3 °F 12.9 °F 88% 30.08 in 0.2 mi SW 34.5 mph 67.9 mph 0.00 in Fog , Snow Heavy Snow
5:05 AM 17.1 °F -2.7 °F 12.0 °F 81% 29.89 in 0.2 mi SW 29.9 mph 61.0 mph 0.00 in Snow Heavy Snow
5:53 AM 16.0 °F -5.5 °F 12.0 °F 84% 30.10 in 0.2 mi SW 35.7 mph 49.5 mph 0.00 in Fog , Snow Snow
6:53 AM 16.0 °F -6.6 °F 12.0 °F 84% 30.09 in 0.2 mi SSW 40.3 mph 62.1 mph 0.00 in Fog Light Freezing Fog
7:53 AM 16.0 °F -6.8 °F 12.9 °F 88% 30.13 in 0.2 mi SW 41.4 mph 54.1 mph N/A Fog Light Freezing Fog
8:53 AM 16.0 °F -7.9 °F 12.9 °F 88% 30.14 in 0.2 mi SW 47.2 mph 61.0 mph N/A Fog Light Freezing Fog
9:53 AM 17.1 °F -4.3 °F 12.0 °F 81% 30.16 in 0.2 mi SW 36.8 mph 55.2 mph 0.00 in Snow Heavy Snow
10:53 AM 19.0 °F -0.3 °F 12.0 °F 74% 30.19 in 0.5 mi SW 31.1 mph 52.9 mph 0.00 in Snow Snow
11:27 AM 19.9 °F 0.4 °F 12.0 °F 71% 30.01 in 1.2 mi SW 33.4 mph 44.9 mph 0.00 in Snow Light Snow
11:41 AM 19.9 °F -0.1 °F 12.0 °F 71% 30.01 in 0.8 mi SW 35.7 mph 49.5 mph 0.00 in Snow Light Snow
11:50 AM 19.4 °F -0.8 °F 12.2 °F 74% 30.02 in 1.0 mi SW 35.7 mph 46.0 mph 0.00 in Snow Light Snow
11:53 AM 19.9 °F -0.6 °F 12.0 °F 71% 30.20 in 1.0 mi SW 38.0 mph 46.0 mph 0.00 in Snow Light Snow
12:11 PM 21.0 °F 2.4 °F 12.9 °F 71% 30.02 in 1.5 mi SW 31.1 mph 46.0 mph 0.00 in Snow Light Snow
12:20 PM 21.0 °F 1.4 °F 12.9 °F 71% 30.02 in 2.5 mi SW 35.7 mph 43.7 mph 0.00 in Snow Light Snow
12:29 PM 21.0 °F 1.7 °F 12.0 °F 68% 30.02 in 1.2 mi SW 34.5 mph 47.2 mph 0.00 in Snow Light Snow
12:35 PM 19.9 °F -1.0 °F 12.0 °F 71% 30.02 in 0.8 mi SW 40.3 mph 49.5 mph 0.00 in Snow Light Snow
12:48 PM 19.4 °F -0.0 °F 10.4 °F 68% 30.02 in 1.0 mi SW 32.2 mph 48.3 mph 0.00 in Snow Light Snow
12:53 PM 21.0 °F 1.4 °F 12.0 °F 68% 30.21 in 1.5 mi SW 35.7 mph 42.6 mph 0.00 in Snow Light Snow
1:02 PM 19.9 °F 0.4 °F 10.9 °F 68% 30.03 in 2.5 mi SW 33.4 mph 43.7 mph 0.00 in   Overcast
1:10 PM 21.0 °F 1.4 °F 10.9 °F 65% 30.03 in 3.0 mi SW 35.7 mph 47.2 mph 0.00 in   Overcast
1:18 PM 21.0 °F 1.4 °F 10.9 °F 65% 30.03 in 2.5 mi SW 35.7 mph 47.2 mph 0.00 in Snow Light Snow
1:33 PM 21.0 °F 1.7 °F 10.9 °F 65% 30.04 in 4.0 mi SSW 34.5 mph 40.3 mph 0.00 in   Overcast
1:53 PM 21.0 °F 2.4 °F 10.0 °F 63% 30.23 in 6.0 mi SW 31.1 mph 42.6 mph 0.00 in   Haze
2:53 PM 21.9 °F 5.5 °F 10.9 °F 63% 30.24 in 10.0 mi SW 24.2 mph 34.5 mph N/A   Overcast
3:53 PM 21.9 °F 5.8 °F 10.9 °F 63% 30.27 in 8.0 mi WSW 23.0 mph - 0.00 in Snow Light Snow
4:53 PM 21.9 °F 7.3 °F 12.0 °F 66% 30.30 in 5.0 mi WSW 18.4 mph 28.8 mph 0.00 in Snow Light Snow
5:50 PM 21.2 °F 9.5 °F 12.2 °F 68% 30.16 in 2.0 mi West 11.5 mph - 0.00 in Snow Light Snow
5:53 PM 21.9 °F 11.0 °F 14.0 °F 72% 30.34 in 1.8 mi WNW 10.4 mph - 0.00 in Snow Light Snow
6:36 PM 21.9 °F 10.4 °F 12.9 °F 68% 30.18 in 3.0 mi WSW 11.5 mph - 0.00 in Snow Light Snow
6:53 PM 21.0 °F 9.3 °F 12.9 °F 71% 30.36 in 4.0 mi West 11.5 mph - 0.00 in Snow Light Snow
7:24 PM 21.9 °F 8.7 °F 12.0 °F 66% 30.17 in 10.0 mi West 15.0 mph - 0.00 in   Overcast
7:53 PM 23.0 °F 9.6 °F 12.0 °F 63% 30.34 in 10.0 mi WSW 16.1 mph - 0.00 in   Overcast
8:53 PM 23.0 °F 8.0 °F 12.0 °F 63% 30.35 in 10.0 mi SW 20.7 mph - N/A   Overcast
9:53 PM 23.0 °F 6.9 °F 9.0 °F 55% 30.35 in 10.0 mi SW 24.2 mph 29.9 mph 0.00 in   Overcast
10:53 PM 21.0 °F 3.9 °F 7.0 °F 55% 30.35 in 10.0 mi SW 25.3 mph 34.5 mph N/A   Partly Cloudy
11:53 PM 21.9 °F 3.9 °F 7.0 °F 53% 30.34 in 10.0 mi SW 29.9 mph 39.1 mph N/A   Scattered Clouds